User: anonymous   Login
Location: Caltech
(34.1382°N, 118.1253°W)
Time: 13:39:06
(UTC-07:00)
Language:

CZ-2C R/B - Orbit

View from above orbital plane
View from above orbital plane
View from above satellite
View from above satellite

Ground track
Ground track

The orbit data is extracted from the following two-line orbital elements,

1 36089U 09061B   15142.07140046  .00000136  00000-0  45416-4 0  9991
2 36089 098.0724 166.2495 0081492 216.1844 164.6826 14.49440682292021
Epoch (UTC): 22 May 2015 01:42:49
Eccentricity: 0.0081492
inclination: 98.0724°
perigee height: 669 km
apogee height: 785 km
right ascension of ascending node: 166.2495°
argument of perigee: 216.1844°
revolutions per day: 14.49440682
mean anomaly at epoch: 164.6826°
orbit number at epoch: 29202

The dashed part of the orbit path shows where the satellite is in the earth's shadow,  

DLR